sat.trackr.live / text

‹ back to catalog

STARLINK-36727

NORAD 67875 · 2026-034AB

PAYLOAD ACTIVE UNKNOWN

§ Identity

Operator
Country
US
Launch date
2026-02-20
Launch site
AFETR
Launch vehicle
Mass (kg)
RCS (m²)

Purposes: comms

External: N2YO · Heavens-Above · Gunter

§ Orbital elements

Epoch: 2026-05-25T04:12:05.308416Z

Period
94.01 min
Inclination
53.1587°
Eccentricity
0.0001311
Mean motion
15.31715977 rev/d
Perigee alt
469.8 km
Apogee alt
471.6 km
Semi-major
6,848.8 km
B*
5.1120e-4
RAAN
208.4208°
Arg perigee
89.0315°
Mean anomaly
271.0836°
Rev number
1,575

§ Raw data

STARLINK-367271 67875U 26034AB  26145.17506144  .00015539  00000+0  51120-3 0  99982 67875  53.1587 208.4208 0001311  89.0315 271.0836 15.31715977 15751

JSON: /api/v1/satellites/67875 · /tle

For live sub-satellite position, see the globe view (requires WebGL).

§ Visibility from observer

Set your observer location to see the next 7 days of passes ≥ 10°. The values pass through the URL so the page stays shareable.

No JS? Fill the form by hand. The geolocation button needs JavaScript.